| time (UTC) | temp C | wind direction | speed KPH | gust KPH | rain 1hr cm | rain 24hr cm | rain mn cm | humidity % | barometer mb |
| 20260506073035 | 13 | 325 | 25.7 | 43.5 | 0.00 | 0.08 | 0.08 | 90 | 1026.0 |
| 20260506072030 | 13 | 331 | 25.7 | 40.2 | 0.00 | 0.08 | 0.08 | 90 | 1026.1 |
| 20260506071025 | 13 | 327 | 24.1 | 40.2 | 0.00 | 0.08 | 0.08 | 90 | 1026.1 |
| 20260506062040 | 13 | 322 | 22.5 | 41.8 | 0.00 | 0.08 | 0.08 | 91 | 1025.8 |
| 20260506061036 | 13 | 328 | 22.5 | 43.5 | 0.00 | 0.08 | 0.08 | 91 | 1025.5 |
| 20260506051026 | 13 | 320 | 29.0 | 48.3 | 0.00 | 0.08 | 0.08 | 90 | 1025.8 |
| 20260506045017 | 13 | 333 | 25.7 | 43.5 | 0.00 | 0.08 | 0.08 | 89 | 1026.0 |
| 20260506044031 | 13 | 327 | 27.4 | 48.3 | 0.00 | 0.08 | 0.08 | 89 | 1026.0 |
| 20260506043107 | 13 | 342 | 25.7 | 40.2 | 0.00 | 0.08 | 0.08 | 89 | 1026.0 |
| 20260506042022 | 13 | 345 | 29.0 | 46.7 | 0.00 | 0.08 | 0.08 | 89 | 1025.9 |
| 20260506041017 | 14 | 328 | 22.5 | 40.2 | 0.00 | 0.08 | 0.08 | 89 | 1026.1 |
| 20260506040032 | 14 | 329 | 22.5 | 33.8 | 0.00 | 0.08 | 0.08 | 88 | 1026.1 |
| 20260506035047 | 14 | 336 | 20.9 | 37.0 | 0.00 | 0.08 | 0.08 | 89 | 1026.1 |
| 20260506034022 | 14 | 340 | 20.9 | 37.0 | 0.00 | 0.08 | 0.08 | 89 | 1026.0 |
| 20260506033017 | 14 | 322 | 24.1 | 38.6 | 0.00 | 0.08 | 0.08 | 89 | 1026.0 |
| 20260506032032 | 14 | 331 | 24.1 | 41.8 | 0.00 | 0.08 | 0.08 | 89 | 1026.1 |
| 20260506031027 | 13 | 341 | 24.1 | 37.0 | 0.00 | 0.08 | 0.08 | 89 | 1026.1 |
| 20260506030022 | 13 | 334 | 24.1 | 37.0 | 0.00 | 0.08 | 0.08 | 89 | 1026.0 |
| 20260506025017 | 13 | 332 | 24.1 | 41.8 | 0.00 | 0.08 | 0.08 | 89 | 1026.0 |
| 20260506024032 | 13 | 349 | 24.1 | 38.6 | 0.00 | 0.08 | 0.08 | 89 | 1026.0 |
| 20260506023027 | 13 | 341 | 25.7 | 35.4 | 0.00 | 0.08 | 0.08 | 89 | 1025.9 |
| 20260506022022 | 13 | 331 | 24.1 | 40.2 | 0.00 | 0.08 | 0.08 | 89 | 1025.7 |
| 20260506021017 | 13 | 333 | 19.3 | 35.4 | 0.00 | 0.08 | 0.08 | 89 | 1025.8 |
| 20260506020032 | 13 | 332 | 22.5 | 33.8 | 0.00 | 0.08 | 0.08 | 89 | 1025.9 |
| 20260506015027 | 13 | 334 | 24.1 | 35.4 | 0.00 | 0.08 | 0.08 | 88 | 1026.0 |
| 20260506014042 | 13 | 335 | 20.9 | 33.8 | 0.00 | 0.08 | 0.08 | 89 | 1026.0 |
| 20260506013017 | 13 | 336 | 22.5 | 38.6 | 0.00 | 0.08 | 0.08 | 89 | 1026.1 |
| 20260506012032 | 13 | 336 | 25.7 | 41.8 | 0.03 | 0.08 | 0.08 | 91 | 1026.2 |
| 20260506011027 | 13 | 345 | 17.7 | 25.7 | 0.03 | 0.08 | 0.08 | 91 | 1026.3 |
| 20260506010022 | 13 | 343 | 17.7 | 29.0 | 0.03 | 0.08 | 0.08 | 91 | 1026.5 |
| 20260506005017 | 13 | 344 | 20.9 | 38.6 | 0.03 | 0.08 | 0.08 | 91 | 1026.4 |
| 20260506004032 | 13 | 333 | 20.9 | 35.4 | 0.03 | 0.05 | 0.05 | 91 | 1026.6 |
| 20260506003027 | 13 | 332 | 20.9 | 33.8 | 0.05 | 0.05 | 0.05 | 91 | 1026.7 |
| 20260506002022 | 13 | 332 | 22.5 | 40.2 | 0.03 | 0.05 | 0.05 | 90 | 1026.8 |
| 20260506001017 | 13 | 346 | 30.6 | 48.3 | 0.05 | 0.05 | 0.05 | 91 | 1026.9 |
| 20260506000052 | 13 | 337 | 25.7 | 40.2 | 0.05 | 0.05 | 0.05 | 91 | 1026.9 |
| 20260505235028 | 13 | 333 | 19.3 | 30.6 | 0.03 | 0.03 | 0.03 | 91 | 1027.0 |
| 20260505234043 | 13 | 336 | 24.1 | 43.5 | 0.03 | 0.03 | 0.03 | 91 | 1027.1 |
| 20260505233018 | 13 | 332 | 22.5 | 40.2 | 0.00 | 0.00 | 0.00 | 91 | 1027.2 |
| 20260505232033 | 13 | 333 | 19.3 | 33.8 | 0.00 | 0.00 | 0.00 | 89 | 1027.1 |
| 20260505231028 | 13 | 331 | 24.1 | 40.2 | 0.00 | 0.00 | 0.00 | 89 | 1027.1 |
| 20260505230023 | 13 | 335 | 29.0 | 46.7 | 0.00 | 0.00 | 0.00 | 90 | 1027.2 |
| 20260505225018 | 13 | 326 | 30.6 | 45.1 | 0.00 | 0.00 | 0.00 | 90 | 1027.3 |
| 20260505224034 | 13 | 325 | 24.1 | 45.1 | 0.00 | 0.00 | 0.00 | 90 | 1027.4 |
| 20260505223028 | 13 | 342 | 25.7 | 45.1 | 0.00 | 0.00 | 0.00 | 89 | 1027.3 |
| 20260505222023 | 13 | 335 | 24.1 | 38.6 | 0.00 | 0.00 | 0.00 | 89 | 1027.4 |
| 20260505221018 | 13 | 331 | 19.3 | 35.4 | 0.00 | 0.00 | 0.00 | 90 | 1027.3 |
| 20260505220034 | 12 | 333 | 20.9 | 37.0 | 0.00 | 0.00 | 0.00 | 90 | 1027.5 |
| 20260505215029 | 12 | 332 | 20.9 | 35.4 | 0.00 | 0.00 | 0.00 | 90 | 1027.5 |
| 20260505214024 | 12 | 343 | 20.9 | 29.0 | 0.00 | 0.00 | 0.00 | 90 | 1027.6 |
| 20260505213019 | 12 | 354 | 22.5 | 38.6 | 0.00 | 0.00 | 0.00 | 89 | 1027.4 |
| 20260505212034 | 12 | 350 | 20.9 | 32.2 | 0.00 | 0.00 | 0.00 | 89 | 1027.5 |
| 20260505211030 | 12 | 349 | 20.9 | 37.0 | 0.00 | 0.00 | 0.00 | 88 | 1027.6 |
| 20260505210025 | 12 | 319 | 22.5 | 41.8 | 0.00 | 0.00 | 0.00 | 88 | 1027.8 |
| 20260505205040 | 12 | 341 | 16.1 | 32.2 | 0.00 | 0.00 | 0.00 | 87 | 1027.7 |
| 20260505204035 | 12 | 331 | 19.3 | 33.8 | 0.00 | 0.00 | 0.00 | 87 | 1027.7 |
| 20260505203030 | 12 | 339 | 24.1 | 43.5 | 0.00 | 0.00 | 0.00 | 87 | 1027.8 |
| 20260505202025 | 12 | 334 | 22.5 | 37.0 | 0.00 | 0.00 | 0.00 | 86 | 1027.8 |
| 20260505201020 | 12 | 332 | 24.1 | 35.4 | 0.00 | 0.00 | 0.00 | 86 | 1027.9 |
| 20260505200035 | 12 | 333 | 20.9 | 32.2 | 0.00 | 0.00 | 0.00 | 86 | 1027.8 |
| 20260505195030 | 12 | 329 | 19.3 | 32.2 | 0.00 | 0.00 | 0.00 | 87 | 1027.7 |
| 20260505194045 | 12 | 342 | 16.1 | 30.6 | 0.00 | 0.00 | 0.00 | 87 | 1027.6 |
| 20260505193020 | 12 | 341 | 16.1 | 25.7 | 0.00 | 0.00 | 0.00 | 87 | 1027.7 |
| 20260505192056 | 12 | 333 | 17.7 | 35.4 | 0.00 | 0.00 | 0.00 | 87 | 1027.6 |
| 20260505191051 | 12 | 347 | 17.7 | 29.0 | 0.00 | 0.00 | 0.00 | 87 | 1027.5 |
| 20260505190026 | 12 | 353 | 19.3 | 30.6 | 0.00 | 0.00 | 0.00 | 87 | 1027.6 |
| 20260505185021 | 11 | 347 | 20.9 | 29.0 | 0.00 | 0.00 | 0.00 | 87 | 1027.6 |
| 20260505184015 | 11 | 352 | 19.3 | 27.4 | 0.00 | 0.00 | 0.00 | 87 | 1027.7 |
| 20260505183031 | 11 | 360 | 19.3 | 32.2 | 0.00 | 0.00 | 0.00 | 86 | 1027.7 |
| 20260505182026 | 11 | 354 | 24.1 | 33.8 | 0.00 | 0.00 | 0.00 | 87 | 1027.7 |
| 20260505181021 | 11 | 360 | 22.5 | 35.4 | 0.00 | 0.00 | 0.00 | 87 | 1027.6 |
| 20260505180036 | 11 | 349 | 20.9 | 33.8 | 0.00 | 0.00 | 0.00 | 87 | 1027.9 |
| 20260505175031 | 11 | 354 | 17.7 | 30.6 | 0.00 | 0.00 | 0.00 | 86 | 1027.9 |
| 20260505174027 | 11 | 344 | 19.3 | 41.8 | 0.00 | 0.00 | 0.00 | 86 | 1027.9 |
| 20260505173021 | 11 | 346 | 19.3 | 33.8 | 0.00 | 0.00 | 0.00 | 85 | 1028.0 |
| 20260505172016 | 11 | 348 | 22.5 | 37.0 | 0.00 | 0.00 | 0.00 | 85 | 1028.0 |
| 20260505171032 | 11 | 344 | 17.7 | 27.4 | 0.00 | 0.00 | 0.00 | 84 | 1028.0 |
| 20260505170026 | 11 | 350 | 20.9 | 45.1 | 0.00 | 0.00 | 0.00 | 84 | 1028.0 |
| 20260505165042 | 12 | 335 | 24.1 | 38.6 | 0.00 | 0.00 | 0.00 | 83 | 1028.1 |
| 20260505164017 | 12 | 329 | 19.3 | 30.6 | 0.00 | 0.00 | 0.00 | 83 | 1028.1 |
| 20260505163032 | 11 | 326 | 27.4 | 48.3 | 0.00 | 0.00 | 0.00 | 84 | 1028.2 |
| 20260505162027 | 11 | 329 | 22.5 | 41.8 | 0.00 | 0.00 | 0.00 | 83 | 1028.2 |
| 20260505161022 | 11 | 342 | 20.9 | 37.0 | 0.00 | 0.00 | 0.00 | 83 | 1028.4 |
| 20260505153022 | 12 | 329 | 27.4 | 43.5 | 0.00 | 0.00 | 0.00 | 80 | 1028.7 |
| 20260505152018 | 12 | 339 | 24.1 | 40.2 | 0.00 | 0.00 | 0.00 | 80 | 1028.8 |
| 20260505151033 | 12 | 338 | 22.5 | 40.2 | 0.00 | 0.00 | 0.00 | 80 | 1029.0 |
| 20260505124019 | 11 | 360 | 19.3 | 30.6 | 0.00 | 0.00 | 0.00 | 73 | 1030.2 |
| 20260505123054 | 11 | 5 | 22.5 | 35.4 | 0.00 | 0.00 | 0.00 | 73 | 1030.4 |
| 20260505122030 | 11 | 345 | 17.7 | 33.8 | 0.00 | 0.00 | 0.00 | 74 | 1030.3 |
| 20260505121025 | 11 | 354 | 16.1 | 32.2 | 0.00 | 0.00 | 0.00 | 74 | 1030.1 |
| 20260505120020 | 11 | 348 | 12.9 | 30.6 | 0.00 | 0.00 | 0.00 | 74 | 1030.3 |
| 20260505115034 | 11 | 6 | 19.3 | 33.8 | 0.00 | 0.00 | 0.00 | 75 | 1030.2 |
| 20260505114030 | 11 | 14 | 19.3 | 33.8 | 0.00 | 0.00 | 0.00 | 74 | 1030.3 |
| 20260505113025 | 11 | 10 | 19.3 | 33.8 | 0.00 | 0.00 | 0.00 | 74 | 1030.3 |
| 20260505112020 | 11 | 11 | 17.7 | 32.2 | 0.00 | 0.00 | 0.00 | 74 | 1030.2 |
| 20260505111035 | 11 | 11 | 19.3 | 35.4 | 0.00 | 0.00 | 0.00 | 75 | 1030.3 |
| 20260505102031 | 10 | 14 | 20.9 | 33.8 | 0.00 | 0.00 | 0.00 | 76 | 1030.6 |
| 20260505101026 | 10 | 22 | 19.3 | 30.6 | 0.00 | 0.00 | 0.00 | 77 | 1030.6 |
| 20260505100022 | 10 | 11 | 20.9 | 35.4 | 0.00 | 0.00 | 0.00 | 76 | 1030.8 |
| 20260505095016 | 10 | 15 | 19.3 | 30.6 | 0.00 | 0.00 | 0.00 | 75 | 1030.8 |
| 20260505094031 | 11 | 7 | 19.3 | 29.0 | 0.00 | 0.00 | 0.00 | 74 | 1030.7 |
| 20260505093026 | 11 | 6 | 17.7 | 32.2 | 0.00 | 0.00 | 0.00 | 75 | 1030.7 |
| 20260505092022 | 11 | 0 | 17.7 | 27.4 | 0.00 | 0.00 | 0.00 | 75 | 1030.9 |
| 20260505091017 | 11 | 352 | 19.3 | 29.0 | 0.00 | 0.00 | 0.00 | 75 | 1030.7 |
| 20260505090031 | 11 | 4 | 17.7 | 30.6 | 0.00 | 0.00 | 0.00 | 75 | 1030.9 |
| 20260505085027 | 10 | 9 | 20.9 | 35.4 | 0.00 | 0.00 | 0.00 | 76 | 1030.8 |
| 20260505084022 | 10 | 354 | 19.3 | 29.0 | 0.00 | 0.00 | 0.00 | 76 | 1030.8 |
| 20260505083017 | 10 | 343 | 19.3 | 35.4 | 0.00 | 0.00 | 0.00 | 77 | 1030.8 |
| 20260505082032 | 10 | 349 | 20.9 | 33.8 | 0.00 | 0.00 | 0.00 | 78 | 1030.8 |
| 20260505081027 | 10 | 350 | 19.3 | 35.4 | 0.00 | 0.00 | 0.00 | 78 | 1030.9 |
| 20260505080022 | 10 | 357 | 22.5 | 37.0 | 0.00 | 0.00 | 0.00 | 79 | 1030.9 |
| 20260505075017 | 10 | 6 | 25.7 | 37.0 | 0.00 | 0.00 | 0.00 | 79 | 1031.0 |
| 20260505074032 | 10 | 1 | 24.1 | 35.4 | 0.00 | 0.00 | 0.00 | 79 | 1030.9 |